Location: Cerezo de Arriba
(41.2389°N, 3.5585°W)
Time: 04:50:55
(UTC+00:00)

NOSS 3-1 (A) - Pass Details

Date: 19 May 2025
Orbit: 639 x 1568 km, 63.4° (Epoch: 20 June)

Event Time Altitude Azimuth Distance (km) Brightness Sun altitude
Exits shadow 20:50:24 17° 107° (ESE) 1,746 4.3 -13.2°
Drops below altitude 10° 20:53:34 10° 68° (ENE) 2,275 5.2 -13.6°
Sets 20:56:56 0° 49° (NE) 3,357 6.3 -14.1°
